Powrót do katalogu

IRIDIUM 33 DEB

AktywnyPO
NORAD 34765·DEBRIS·🇺🇸 United States

Wystrzelony Sep 14, 1997 z Baikonur Cosmodrome

Loading…

Następne Przeloty (najbliższe 24 godziny)

TLE

ŚwieżeSource: Space-Track

Epoka: Sep 14, 2026, 11:59 UTC

1 34765U 97051LJ  26257.49979128  .00000716  00000-0  21590-3 0  9992
2 34765  86.3330 274.3703 0017450  36.9169 115.6710 14.41099063915842

Śledź IRIDIUM 33 DEB w czasie rzeczywistym z AllMySat

Download on the App Store